Regional Weather Roundup
Issued by NWS

Home | Current Version | Previous Version | Graphics & Text | Print | Product List | Glossary On
Versions: 1 2 3 4 5 6 7 8 9 10 11 12 13 14 15 16 17 18 19 20 21 22 23 24 25 26 27 28 29 30 31 32 33 34 35 36 37 38 39 40 41 42 43 44 45 46 47 48 49 50
000
ASUS43 KLSX 190659
RWRMO

WEATHER SUMMARY FOR MISSOURI
NATIONAL WEATHER SERVICE SPRINGFIELD MO
200 AM CDT SAT APR 19 2014

NOTE: "FAIR" INDICATES FEW OR NO CLOUDS BELOW 12,000 FEET WITH NO
       SIGNIFICANT WEATHER AND/OR OBSTRUCTIONS TO VISIBILITY.
       CURRENT SKY AND/OR WEATHER CONDITIONS ARE NOT AVAILABLE FOR
       CHILLICOTHE AND FARMINGTON.

MOZ001>031-035>038-043-044-053-054-190800-
...NORTHERN AND WESTERN MISSOURI...

CITY           SKY/WX    TMP DP  RH WIND       PRES   REMARKS
KANSAS CTY INT PTCLDY    54  41  61 SE12      30.16F
KANSAS C DTWN  PTCLDY    61  39  44 SE10      30.16F
LEE`S SUMMIT   CLEAR     56  40  55 SE7       30.18S
ST JOSEPH      PTCLDY    56  41  57 SE9       30.16F
CHILLICOTHE      N/A     52  40  63 SE3       30.20F
KIRKSVILLE     CLEAR     48  33  56 E7        30.23S

$$
MOZ066>068-077>081-088>096-101>105-190800-
...SOUTHWEST MISSOURI...

CITY           SKY/WX    TMP DP  RH WIND       PRES   REMARKS
SPRINGFIELD    CLEAR     56  41  57 SE10      30.19F
JOPLIN         CLEAR     55  41  59 SE9       30.17F

$$
MOZ032>034-039>042-045>050-055>058-069>072-190800-
...CENTRAL MISSOURI...

CITY           SKY/WX    TMP DP  RH WIND       PRES   REMARKS
COLUMBIA       CLEAR     55  39  54 E8        30.22F
JEFFERSON CITY CLEAR     48  41  76 SE6       30.22F
ROLLA          CLEAR     51  40  65 SE9       30.22F
SEDALIA        CLEAR     54  41  61 SE10      30.21S
OSAGE BEACH    CLEAR     57  37  47 SE6       30.23F

$$
MOZ051-052-059>065-190800-
...EAST CENTRAL MISSOURI...

CITY           SKY/WX    TMP DP  RH WIND       PRES   REMARKS
ST LOUIS INTL  CLEAR     54  40  59 CALM      30.25S
SPIRIT OF STL  CLEAR     44  40  85 CALM      30.24F
ST CHARLES     CLEAR     49  44  83 CALM      30.24S

$$
MOZ072>076-082>087-097>100-106>115-190800-
...SOUTH CENTRAL AND SOUTHEAST MISSOURI...

CITY           SKY/WX    TMP DP  RH WIND       PRES   REMARKS
CAPE GIRARDEAU CLEAR     49  46  90 CALM      30.22F
FARMINGTON     CLEAR     45  39  81 CALM      30.26F
POPLAR BLUFF   CLEAR     53  44  71 N3        30.21S
WEST PLAINS    CLEAR     46  40  79 NE3       30.23F

$$



USA.gov is the U.S. government's official web portal to all federal, state and local government web resources and services.